PROFILE

 METAR AND TAF INFORMATION
ADDS - METARS form results

(0436 UTC 25 April 2019)
http://aviationweather.gov/metar/data/
 
ESSA 250420Z 07007KT 040V100 CAVOK 08/01 Q1019 NOSIG
ESSA 250350Z 07007KT CAVOK 08/00 Q1019 NOSIG
TAF ESSA 242330Z 2500/2524 08009KT CAVOK TEMPO 2510/2516 14015G25KT 

 AIRPORT MAP

 RUNWAY INFORMATION
Runway 01L Runway length 10830 ft Runway width 148 ft
Runway elevation 98 ft Runway displaced threshold 0 ft Runway heading 10
Runway 19R Runway length 10830 ft Runway width 148 ft
Runway elevation 118 ft Runway displaced threshold 0 ft Runway heading 190
Runway 01R Runway length 8201 ft Runway width 148 ft
Runway elevation 137 ft Runway displaced threshold 0 ft Runway heading 10
Runway 19L Runway length 8201 ft Runway width 148 ft
Runway elevation 98 ft Runway displaced threshold 0 ft Runway heading 190
Runway 08 Runway length 8202 ft Runway width 148 ft
Runway elevation 108 ft Runway displaced threshold 0 ft Runway heading 76
Runway 26 Runway length 8202 ft Runway width 148 ft
Runway elevation 124 ft Runway displaced threshold 0 ft Runway heading 256

 AIRPORT FREQUENCIES
Type APP Name STOCKHOLM Frequency 123.75 MHZ
Type ATIS Name ATIS Frequency 119 MHZ
Type CLD Name CLNC DEL Frequency 121.825 MHZ
Type GND Name GND Frequency 121.7 MHZ
Type PMSV Name MET OFFICE Frequency 122.6 MHZ
Type TWR Name TWR Frequency 118.5 MHZ

 AIRPORT NEAR NAVIGATION AIDS
Type VOR-DME Name Arlanda Frequency 116000 KHZ
Type NDB Name Arlanda Frequency 352 KHZ
Type NDB Name Arlanda Frequency 360 KHZ
Type NDB Name Arlanda Frequency 404 KHZ
Type NDB Name Arlanda Frequency 370 KHZ